Showing default

HYPSO-1, 51053

Orbit data source: Space-Track

HYPSO-1, 51053 is a payload satellite owned by NTNU (NO) in SSO that was launched on Thu, 13 Jan 2022 UTC via an FALCON 9 launch vehicle from the Air Force Eastern Test Range (AFETR). Payload-class satellites include a variety of spacecraft equipped with specific instruments for various scientific and technological missions. These include communications satellites like Starlink; space stations such as the ISS; scientific satellites like the Hubble; Earth observation satellites from companies like Planet Labs, Umbra, and HawkEye 360; GPS; miniature CubeSats for education and research; and military/defense satellites.

Loading next visibility...
Identifier
51053, 2022-002BX
Orbit
SSO
Country
Flag of NONO / NOR
Related business
Manufacturer
NanoAvionics
Mission
Operational Amateur Imaging
Bus & Motor
CUBESAT 6U, Unknown motor
Mass
~10 kg wet, ~10 kg dry
Launch date (UTC)
2022-01-13 (5 years ago)
Launch vehicle
FALCON 9
Launch site
Air Force Eastern Test Range (AFETR)
Object type
Payload
Rocket body
Debris
Shape & HBR
Box + 2 Pan, 0.2 m
Radar Cross Section
0.080 m², Medium (>0.1 m² and < 1m²)

Expand to show TLE details & history
Last TLE update: 16 hours ago

TLE from 16 hours ago
0 HYPSO-1
1 51053U 22002BX  26249.20708406  .00103944  00000-0  44187-3 0  9998
2 51053  97.2727 334.3686 0002606 272.7466  87.3506 15.84995896259684
Epoch: 2026-09-06T04:58Z
TLE epoch observation values (Epoch: 2026-09-06T04:58:12.062Z)
Latitude
-0.00007°
Longitude
-85.48717°
Altitude
319.438 km
Speed
7.717 km/s
True Right ascension
22h 17m 28s
True Declination
0° 00' 00"
Sunlit
Object was in full shadow at epoch
Visualization orbit readout
Latitude
Unknown
Longitude
Unknown
Altitude
Unknown
Speed
Unknown
Apparent Right ascension
Unknown
Apparent Declination
Unknown
Sunlit
N/A
Visualization observer readout
Local Sidereal Time
12:42:24
Azimuth
Unknown
Elevation
Unknown
Doppler factor
Unknown
Orbital elements
Apogee altitude
314.954 km
Perigee altitude
311.466 km
Semi-major axis
6,691.347 km
Eccentricity
0.00026
Inclination
97.2727°
RAAN
334.3686°
Arg. of periapsis
272.7466°
True anomaly
87.38043°
Mean anomaly
87.3506°
Eccentric anomaly
87.36552°
Mean motion
3.96527 °/min
Orbital period
90.79 mins
BSTAR
0.00044187
Loading maneuver chart data...
Computing Atmospheric mass density...

Documentation

Showing up to 5 results
|